Location: Stara Lesna
(49.1528°N, 20.2911°E)
Time: 07:04:40
(UTC+02:00)

NOAA 9 - Pass Details

Date: 21 September 2019
Orbit: 827 x 850 km, 98.9° (Epoch: 23 October)

Event Time Altitude Azimuth Distance (km) Brightness Sun altitude
Rises 03:27:59 0° 14° (NNE) 3,384 8.6 -27.3°
Reaches altitude 10° 03:30:20 10° 14° (NNE) 2,444 7.7 -27.0°
Maximum altitude 03:35:46 87° 289° (WNW) 836 4.5 -26.3°
Enters shadow 03:36:08 78° 213° (SSW) 850 4.5 -26.3°
